Regional Weather Roundup
Issued by NWS

Home | Current Version | Previous Version | Text Only | Print | Product List | Glossary Off
Versions: 1 2 3 4 5 6 7 8 9 10 11 12 13 14 15 16 17 18 19 20 21 22 23 24 25 26 27 28 29 30 31 32 33 34 35 36 37 38 39 40 41 42 43 44 45 46 47 48 49 50

000
ASUS43 KTOP 290408
RWRKS

WEATHER ROUNDUP FOR KANSAS
NATIONAL WEATHER SERVICE GOODLAND KS
1000 PM CST WED JAN 28 2015

NOTE:  "FAIR" INDICATES FEW OR NO CLOUDS BELOW 12,000 FEET WITH NO
SIGNIFICANT WEATHER AND/OR OBSTRUCTIONS TO VISIBILITY.

KSZ001>006-013>018-027>032-041>047-290500-
NORTHWEST KANSAS

CITY           SKY/WX    TMP DP  RH WIND       PRES   REMARKS
GOODLAND       CLEAR     41  35  79 NW15      30.19R
HAYS           CLEAR     54  27  35 NW16      30.04R
HILL CITY      PTCLDY    49  29  46 NW14      30.07R
RUSSELL        CLEAR     55  30  38 NW21      30.00R
$$

KSZ061>065-074>080-084>089-290500-
SOUTHWEST KANSAS

CITY           SKY/WX    TMP DP  RH WIND       PRES   REMARKS
DODGE CITY     CLEAR     53  32  44 N17G26    30.09R
ELKHART          N/A     51  28  41 N9          N/A
GARDEN CITY    CLEAR     49  32  52 N16       30.12R
LIBERAL        PTCLDY    48  28  46 NW10        N/A
PRATT          CLEAR     52  32  46 NW14      30.04R
$$

KSZ066>073-081>083-090>101-290500-
SOUTHEAST KANSAS

CITY           SKY/WX    TMP DP  RH WIND       PRES   REMARKS
CHANUTE        CLOUDY    57  39  51 SW9       29.85R
COFFEYVILLE    CLOUDY    59  38  45 SW6       29.88R
HUTCHINSON     CLEAR     61  31  32 NW21G31   29.96R
MEDICINE LODGE   N/A     57  33  40 NW10      30.00R
NEWTON         CLEAR     57  30  35 NW16      29.95R
PARSONS        CLOUDY    59  39  47 SW3       29.88R
WICHITA INTL   PTCLDY    61  32  33 NW18      29.94R
WICHITA JABRA  PTCLDY    59  32  36 NW16      29.93R
WICHITA MCCONL PTCLDY    62  33  33 W15G22    29.94R
WINFIELD       MOCLDY    56  25  30 W9        29.94R
$$

KSZ007>012-019>026-033>040-048>060-102>105-290500-
NORTHEAST KANSAS

CITY           SKY/WX    TMP DP  RH WIND       PRES   REMARKS
CONCORDIA      CLEAR     53  30  41 NW10      29.93R
EMPORIA        PTCLDY    58  33  39 W14       29.86R
LAWRENCE       MOCLDY    51  34  52 NW9       29.81R
MANHATTAN      CLEAR     57  33  40 VRB6      29.88R
MARYSVILLE     CLEAR     52  34  50 NW16      29.88R
OLATHE IND     MOCLDY    53  37  54 SW6       29.81R
OLATHE EXE     MOCLDY    55  38  52 W7        29.79R
SALINA         CLEAR     57  31  37 NW17      29.95R
TOPEKA BILLARD PTCLDY    52  34  50 W8        29.83R
TOPEKA FORBES  PTCLDY    59  34  39 NW18      29.82R
$$


USA.gov is the U.S. government's official web portal to all federal, state and local government web resources and services.